• In Österreich
  • Länderverzeichnis
  • Für 7 Tage
  • Wassertemperatur
  • Satellitenkarten
  • Wetterkarte
  • News
  • Widgets
  • user-avatar
    Anmelden

    Stündliche Wetter Plotavec

    Heute, 20 Juli, Freitag

    Zeit Temperatur Niederschläge Wind Luftdruck Luftfeuchtigkeit
    00:00 +19°C° 0 mm 3 m/S 741 mmHg 95%
    01:00 +18°C° 0 mm 3 m/S 741 mmHg 95%
    02:00 +18°C° 0 mm 3 m/S 741 mmHg 96%
    03:00 +18°C° 0,1 mm 3 m/S 741 mmHg 95%
    04:00 +18°C° 0,1 mm 4 m/S 741 mmHg 95%
    05:00 +19°C° 0,1 mm 4 m/S 740 mmHg 94%
    06:00 +19°C° 0,1 mm 4 m/S 740 mmHg 94%
    07:00 +19°C° 0,1 mm 4 m/S 741 mmHg 93%
    08:00 +20°C° 0,1 mm 4 m/S 741 mmHg 92%
    09:00 +20°C° 0,1 mm 4 m/S 741 mmHg 91%
    10:00 +20°C° 0,1 mm 4 m/S 741 mmHg 89%
    11:00 +21°C° 0,1 mm 4 m/S 741 mmHg 88%
    12:00 +22°C° 0,3 mm 4 m/S 741 mmHg 87%
    13:00 +22°C° 0,3 mm 4 m/S 741 mmHg 85%
    14:00 +23°C° 0,3 mm 4 m/S 741 mmHg 84%
    15:00 +23°C° 0,9 mm 4 m/S 741 mmHg 85%
    16:00 +23°C° 0,9 mm 4 m/S 740 mmHg 87%
    17:00 +23°C° 0,9 mm 4 m/S 740 mmHg 88%
    18:00 +22°C° 0,6 mm 4 m/S 740 mmHg 89%
    19:00 +22°C° 0,6 mm 4 m/S 740 mmHg 91%
    20:00 +21°C° 0,6 mm 4 m/S 740 mmHg 92%
    21:00 +21°C° 0,4 mm 4 m/S 740 mmHg 93%
    22:00 +20°C° 0,4 mm 4 m/S 741 mmHg 94%
    23:00 +20°C° 0,4 mm 4 m/S 741 mmHg 95%

    Morgen, 21 Juli, Samstag

    Zeit Temperatur Niederschläge Wind Luftdruck Luftfeuchtigkeit
    00:00 +20°C° 0,2 mm 4 m/S 741 mmHg 96%
    01:00 +19°C° 0,2 mm 4 m/S 741 mmHg 96%
    02:00 +19°C° 0,2 mm 4 m/S 741 mmHg 97%
    03:00 +19°C° 0 mm 4 m/S 741 mmHg 97%
    04:00 +19°C° 0 mm 4 m/S 741 mmHg 96%
    05:00 +19°C° 0 mm 4 m/S 741 mmHg 96%
    06:00 +20°C° 0 mm 4 m/S 741 mmHg 95%
    07:00 +20°C° 0 mm 4 m/S 741 mmHg 94%
    08:00 +20°C° 0 mm 4 m/S 742 mmHg 93%
    09:00 +21°C° 0 mm 4 m/S 742 mmHg 91%
    10:00 +21°C° 0 mm 4 m/S 742 mmHg 89%
    11:00 +22°C° 0 mm 4 m/S 742 mmHg 86%
    12:00 +23°C° 0,1 mm 4 m/S 742 mmHg 84%
    13:00 +23°C° 0,1 mm 5 m/S 742 mmHg 81%
    14:00 +25°C° 0,1 mm 5 m/S 742 mmHg 79%
    15:00 +25°C° 0,2 mm 5 m/S 742 mmHg 79%
    16:00 +25°C° 0,2 mm 5 m/S 742 mmHg 79%
    17:00 +25°C° 0,2 mm 5 m/S 742 mmHg 79%
    18:00 +23°C° 0,1 mm 4 m/S 742 mmHg 83%
    19:00 +22°C° 0,1 mm 4 m/S 742 mmHg 86%
    20:00 +21°C° 0,1 mm 4 m/S 742 mmHg 90%
    21:00 +20°C° 0 mm 3 m/S 742 mmHg 92%
    22:00 +19°C° 0 mm 3 m/S 742 mmHg 94%
    23:00 +18°C° 0 mm 3 m/S 742 mmHg 96%

    übermorgen, 22 Juli, Sonntag

    Zeit Temperatur Niederschläge Wind Luftdruck Luftfeuchtigkeit
    00:00 +18°C° 0,1 mm 3 m/S 742 mmHg 96%
    01:00 +17°C° 0,1 mm 3 m/S 742 mmHg 97%
    02:00 +17°C° 0,1 mm 3 m/S 742 mmHg 98%
    03:00 +17°C° 0 mm 3 m/S 742 mmHg 96%
    04:00 +17°C° 0 mm 3 m/S 742 mmHg 95%
    05:00 +18°C° 0 mm 3 m/S 742 mmHg 94%
    06:00 +18°C° 0 mm 3 m/S 742 mmHg 93%
    07:00 +19°C° 0 mm 3 m/S 742 mmHg 92%
    08:00 +19°C° 0 mm 3 m/S 742 mmHg 91%
    09:00 +20°C° 0 mm 3 m/S 742 mmHg 90%
    10:00 +20°C° 0 mm 4 m/S 742 mmHg 90%
    11:00 +20°C° 0 mm 4 m/S 743 mmHg 90%
    12:00 +21°C° 0,1 mm 4 m/S 743 mmHg 89%
    13:00 +21°C° 0,1 mm 4 m/S 743 mmHg 89%
    14:00 +21°C° 0,1 mm 4 m/S 743 mmHg 89%
    15:00 +21°C° 0,1 mm 4 m/S 742 mmHg 89%
    16:00 +21°C° 0,1 mm 4 m/S 742 mmHg 89%
    17:00 +21°C° 0,1 mm 4 m/S 742 mmHg 89%
    18:00 +20°C° 0,1 mm 4 m/S 742 mmHg 90%
    19:00 +20°C° 0,1 mm 3 m/S 742 mmHg 91%
    20:00 +19°C° 0,1 mm 3 m/S 742 mmHg 93%
    21:00 +19°C° 0,1 mm 3 m/S 742 mmHg 93%
    22:00 +19°C° 0,1 mm 3 m/S 742 mmHg 94%
    23:00 +19°C° 0,1 mm 3 m/S 742 mmHg 94%

    23 Juli, Montag

    Zeit Temperatur Niederschläge Wind Luftdruck Luftfeuchtigkeit
    00:00 +19°C° 0 mm 3 m/S 742 mmHg 95%
    01:00 +18°C° 0 mm 3 m/S 742 mmHg 96%
    02:00 +18°C° 0 mm 3 m/S 742 mmHg 97%
    03:00 +18°C° 0 mm 3 m/S 742 mmHg 96%
    04:00 +18°C° 0 mm 4 m/S 742 mmHg 96%
    05:00 +18°C° 0 mm 4 m/S 742 mmHg 95%
    06:00 +19°C° 0,1 mm 4 m/S 742 mmHg 95%
    07:00 +19°C° 0,1 mm 4 m/S 742 mmHg 95%
    08:00 +19°C° 0,1 mm 4 m/S 742 mmHg 94%
    09:00 +19°C° 0,1 mm 4 m/S 742 mmHg 93%
    10:00 +20°C° 0,1 mm 4 m/S 742 mmHg 93%
    11:00 +20°C° 0,1 mm 4 m/S 743 mmHg 92%
    12:00 +20°C° 0,1 mm 4 m/S 743 mmHg 92%
    13:00 +20°C° 0,1 mm 4 m/S 743 mmHg 92%
    14:00 +20°C° 0,1 mm 3 m/S 743 mmHg 92%
    15:00 +20°C° 0,1 mm 3 m/S 743 mmHg 92%
    16:00 +20°C° 0,1 mm 3 m/S 743 mmHg 92%
    17:00 +20°C° 0,1 mm 3 m/S 742 mmHg 92%
    18:00 +20°C° 0,1 mm 3 m/S 742 mmHg 93%
    19:00 +20°C° 0,1 mm 3 m/S 742 mmHg 93%
    20:00 +20°C° 0,1 mm 3 m/S 742 mmHg 94%
    21:00 +20°C° 0,1 mm 3 m/S 742 mmHg 94%
    22:00 +20°C° 0,1 mm 3 m/S 742 mmHg 95%
    23:00 +20°C° 0,1 mm 3 m/S 742 mmHg 95%

    24 Juli, Dienstag

    Zeit Temperatur Niederschläge Wind Luftdruck Luftfeuchtigkeit
    00:00 +19°C° 0 mm 3 m/S 742 mmHg 96%
    01:00 +19°C° 0 mm 3 m/S 742 mmHg 96%
    02:00 +18°C° 0 mm 3 m/S 742 mmHg 97%
    03:00 +19°C° 0 mm 3 m/S 742 mmHg 97%
    04:00 +19°C° 0 mm 4 m/S 743 mmHg 97%
    05:00 +19°C° 0 mm 4 m/S 743 mmHg 96%
    06:00 +19°C° 0,1 mm 4 m/S 743 mmHg 96%
    07:00 +19°C° 0,1 mm 3 m/S 743 mmHg 95%
    08:00 +20°C° 0,1 mm 3 m/S 743 mmHg 94%
    09:00 +20°C° 0 mm 3 m/S 744 mmHg 93%
    10:00 +21°C° 0 mm 3 m/S 744 mmHg 92%
    11:00 +21°C° 0 mm 3 m/S 744 mmHg 91%
    12:00 +22°C° 0,1 mm 3 m/S 744 mmHg 90%
    13:00 +22°C° 0,1 mm 4 m/S 744 mmHg 88%
    14:00 +23°C° 0,1 mm 4 m/S 744 mmHg 86%
    15:00 +23°C° 0,1 mm 4 m/S 744 mmHg 84%
    16:00 +25°C° 0,1 mm 3 m/S 744 mmHg 82%
    17:00 +25°C° 0,1 mm 3 m/S 744 mmHg 80%
    18:00 +24°C° 0 mm 3 m/S 745 mmHg 85%
    19:00 +23°C° 0 mm 2 m/S 745 mmHg 89%
    20:00 +21°C° 0 mm 2 m/S 745 mmHg 93%
    21:00 +21°C° 0 mm 2 m/S 745 mmHg 94%
    22:00 +20°C° 0 mm 2 m/S 745 mmHg 95%
    23:00 +20°C° 0 mm 2 m/S 745 mmHg 96%

    25 Juli, Mittwoch

    Zeit Temperatur Niederschläge Wind Luftdruck Luftfeuchtigkeit
    00:00 +19°C° 0 mm 2 m/S 746 mmHg 96%
    01:00 +19°C° 0 mm 2 m/S 746 mmHg 97%
    02:00 +19°C° 0 mm 2 m/S 746 mmHg 98%
    03:00 +19°C° 0 mm 2 m/S 746 mmHg 98%
    04:00 +19°C° 0 mm 2 m/S 746 mmHg 97%
    05:00 +19°C° 0 mm 2 m/S 747 mmHg 97%
    06:00 +21°C° 0 mm 2 m/S 747 mmHg 93%
    07:00 +22°C° 0 mm 3 m/S 747 mmHg 88%
    08:00 +25°C° 0 mm 3 m/S 747 mmHg 84%
    09:00 +26°C° 0,5 mm 3 m/S 747 mmHg 80%
    10:00 +27°C° 0,5 mm 3 m/S 747 mmHg 76%
    11:00 +28°C° 0,5 mm 3 m/S 747 mmHg 72%
    12:00 +27°C° 1 mm 3 m/S 747 mmHg 73%
    13:00 +27°C° 1 mm 3 m/S 747 mmHg 74%
    14:00 +27°C° 1 mm 3 m/S 747 mmHg 75%
    15:00 +27°C° 0,4 mm 3 m/S 747 mmHg 77%
    16:00 +27°C° 0,4 mm 3 m/S 747 mmHg 78%
    17:00 +27°C° 0,4 mm 2 m/S 747 mmHg 79%
    18:00 +25°C° 0,2 mm 2 m/S 748 mmHg 82%
    19:00 +24°C° 0,2 mm 2 m/S 748 mmHg 85%
    20:00 +21°C° 0,2 mm 2 m/S 748 mmHg 88%
    21:00 +20°C° 0 mm 2 m/S 748 mmHg 87%
    22:00 +19°C° 0 mm 2 m/S 748 mmHg 87%
    23:00 +18°C° 0 mm 2 m/S 748 mmHg 87%
    Mehr zeigen